« Back
NWS Peachtree City, Ga » Text Product » GA Regional Weather Roundup


Printer-friendly Version
Current Version              Previous Versions:   1  2  3  4  5  6  7  8  9  

Regional Weather Roundup

776
ASUS42 KFFC 302303
RWRGA
WEATHER ROUNDUP FOR GEORGIA
NATIONAL WEATHER SERVICE PEACHTREE CITY GA
600 PM EST FRI JAN 30 2015

NOTE: "FAIR" INDICATES FEW OR NO CLOUDS BELOW 12,000 FEET WITH NO
SIGNIFICANT WEATHER AND/OR OBSTRUCTIONS TO VISIBILITY.

* = USE WITH CAUTION. THE STATIONS MARKED WITH AN ASTERISK MAY NOT
REPORT WEATHER SUCH AS PRECIPITATION, FOG, OR THUNDER AND ARE NOT
QUALITY CONTROLLED BY NWS.

THE REMARK "TC" DENOTES TEMPERATURE READING IN DEGREES CELSIUS.

GAZ001>058-310000-
NORTH GEORGIA

CITY           SKY/WX    TMP DP  RH WIND       PRES   REMARKS
ATLANTA        PTCLDY    46  19  34 NW17G23   30.29R
ATHENS         CLEAR     48  16  27 NW12      30.24R
CHAMBLEE       CLEAR     44  20  38 NW9G18    30.29R
PEACHTREE CITY CLEAR     47  20  34 NW10      30.29S
ROME           CLEAR     46  20  35 N10       30.33S
WEST ATLANTA   CLEAR     45  20  36 NW10      30.31R
GAINESVILLE    CLEAR     44  16  32 NW12      30.27R
CARTERSVILLE   CLEAR     44  19  36 N7        30.33S


CITY           SKY/WX    TMP DP  RH WIND       PRES   REMARKS
DALTON*        CLEAR     43  23  45 N3        30.35R
LAWRENCEVILLE* CLEAR     46  19  34 W12       30.25S
MARIETTA       PTCLDY    44  20  38 NW14      30.30R
KENNESAW*      CLEAR     45  19  36 N8G18     30.33R
$$

GAZ059>098-102>109-310000-
CENTRAL GEORGIA

CITY           SKY/WX    TMP DP  RH WIND       PRES   REMARKS
AUGUSTA-BUSH   CLEAR     52  22  30 NW7       30.23R
AUGUSTA-DANIEL CLEAR     53  22  29 NW8       30.22R
COLUMBUS       PTCLDY    53  21  28 N8        30.28R
MACON          CLEAR     51  21  30 NW12      30.26R
ROBINS AFB     CLEAR     49  22  34 W10       30.25R


CITY           SKY/WX    TMP DP  RH WIND       PRES   REMARKS
LAGRANGE*      PTCLDY    52  27  36 N8        30.30R
SYLVANIA*      CLEAR     52  30  42 NW10      30.22R
MILLEDGEVILLE* CLEAR     50  30  46 W5        30.26R
$$

GAZ099>101-110>166-310000-
SOUTH GEORGIA

CITY           SKY/WX    TMP DP  RH WIND       PRES   REMARKS
SAVANNAH       PTCLDY    54  26  34 NW7       30.20R
VALDOSTA       PTCLDY    55  29  36 CALM      30.23R
ALMA           PTCLDY    55  27  34 NW5       30.22R
ST SIMONS      CLEAR     57  29  34 NW6       30.20R
FT STEWART     CLEAR     54  27  35 NW8       30.20R
ALBANY         PTCLDY    56  26  31 N7        30.27R
HUNTER AFB     CLEAR     55  27  34 NW8       30.18R
MOODY AFB      PTCLDY    54  29  38 N10       30.23R
BRUNSWICK      CLEAR     55  27  33 NW3       30.21R


CITY           SKY/WX    TMP DP  RH WIND       PRES   REMARKS
BAINBRIDGE*    MOCLDY    59  32  36 N6        30.26R
MOULTRIE*      PTCLDY    54  32  43 N3        30.25R
VIDALIA*       CLEAR     52  30  43 NW7       30.22S
WAYCROSS*      PTCLDY    57  33  40 NW8       30.22R
DOUGLAS*       PTCLDY    55  28  35 NW6       30.24R
$$



USA.gov is the U.S. government's official web portal to all federal, state and local government web resources and services.